TimeMDT,TemperatureF,Dew PointF,Humidity,Sea Level PressureIn,VisibilityMPH,Wind Direction,Wind SpeedMPH,Gust SpeedMPH,PrecipitationIn,Events,Conditions,WindDirDegrees,DateUTC
12:53 AM,45.0,26.1,48,29.88,10.0,WSW,16.1,-,N/A,,Clear,250,2012-10-08 06:53:00
1:53 AM,42.1,26.1,53,29.88,10.0,WSW,11.5,-,N/A,,Clear,250,2012-10-08 07:53:00
2:53 AM,42.1,26.1,53,29.86,10.0,WSW,12.7,-,N/A,,Clear,250,2012-10-08 08:53:00
3:53 AM,44.1,25.0,47,29.84,10.0,WSW,11.5,-,N/A,,Clear,250,2012-10-08 09:53:00
4:53 AM,43.0,25.0,49,29.85,10.0,West,11.5,-,N/A,,Clear,260,2012-10-08 10:53:00
5:53 AM,41.0,25.0,53,29.86,10.0,West,10.4,-,N/A,,Clear,270,2012-10-08 11:53:00
6:53 AM,39.0,25.0,57,29.89,10.0,West,12.7,-,N/A,,Clear,270,2012-10-08 12:53:00
7:53 AM,45.0,26.1,48,29.89,10.0,West,9.2,-,N/A,,Clear,260,2012-10-08 13:53:00
8:53 AM,46.9,26.1,44,29.89,10.0,West,9.2,-,N/A,,Clear,260,2012-10-08 14:53:00
9:53 AM,50.0,26.1,39,29.88,10.0,WNW,11.5,-,N/A,,Clear,300,2012-10-08 15:53:00
10:53 AM,50.0,28.9,44,29.88,10.0,NNW,10.4,-,N/A,,Mostly Cloudy,330,2012-10-08 16:53:00
11:53 AM,52.0,33.1,49,29.88,10.0,North,10.4,-,N/A,,Scattered Clouds,350,2012-10-08 17:53:00
12:53 PM,52.0,34.0,50,29.86,10.0,North,6.9,-,N/A,,Overcast,360,2012-10-08 18:53:00
1:53 PM,52.0,34.0,50,29.86,10.0,North,6.9,-,N/A,,Mostly Cloudy,350,2012-10-08 19:53:00
2:53 PM,53.1,35.1,50,29.85,10.0,NNW,13.8,-,N/A,,Overcast,340,2012-10-08 20:53:00
3:53 PM,53.1,33.1,47,29.84,10.0,NNW,10.4,-,N/A,,Overcast,330,2012-10-08 21:53:00
4:53 PM,52.0,37.0,57,29.85,10.0,North,10.4,-,N/A,,Overcast,350,2012-10-08 22:53:00
5:53 PM,48.0,39.0,71,29.89,10.0,North,11.5,-,N/A,,Overcast,350,2012-10-08 23:53:00
6:53 PM,45.0,39.9,82,29.92,10.0,North,11.5,-,N/A,,Overcast,350,2012-10-09 00:53:00
7:35 PM,44.6,39.2,81,29.92,10.0,NNW,10.4,-,N/A,,Overcast,330,2012-10-09 01:35:00
7:53 PM,42.8,39.2,87,29.92,10.0,NNW,9.2,-,N/A,,Overcast,330,2012-10-09 01:53:00
8:01 PM,42.8,39.2,87,29.92,10.0,NW,10.4,-,N/A,,Overcast,320,2012-10-09 02:01:00
8:14 PM,42.8,39.2,87,29.93,10.0,North,11.5,-,0.00,Rain,Light Rain,360,2012-10-09 02:14:00
8:53 PM,41.0,39.9,96,29.94,10.0,North,9.2,-,0.01,Rain,Light Rain,350,2012-10-09 02:53:00
9:43 PM,41.0,39.2,93,29.94,10.0,NNW,9.2,-,N/A,,Overcast,340,2012-10-09 03:43:00
9:53 PM,41.0,39.9,96,29.94,10.0,North,10.4,-,0.00,,Overcast,350,2012-10-09 03:53:00
10:00 PM,39.2,39.2,100,29.95,10.0,North,12.7,-,0.00,Rain,Light Rain,360,2012-10-09 04:00:00
10:53 PM,37.9,37.0,97,29.97,10.0,North,9.2,-,0.03,Rain,Light Rain,10,2012-10-09 04:53:00
11:16 PM,37.4,35.6,93,29.97,9.0,NNW,8.1,-,0.01,,Overcast,340,2012-10-09 05:16:00
11:36 PM,37.4,35.6,93,29.98,10.0,NNW,6.9,-,N/A,,Overcast,340,2012-10-09 05:36:00
11:48 PM,37.4,37.4,100,29.98,9.0,NNW,9.2,-,0.02,,Overcast,340,2012-10-09 05:48:00
11:53 PM,37.0,37.0,100,29.98,9.0,NNW,10.4,-,0.02,Rain,Light Rain,330,2012-10-09 05:53:00